This demonstration page uses our WeatherBlox Daily Observations layout. Learn more.

Left ArrowRight Arrow

Hourly Observations for December 23, 2020

Temp ( °F °C ) Dew Point ( °F °C ) Humidity (%) Winds ( mph kmh ) Pressure ( in mb ) Visibility ( mi km ) Precip ( " mm )
12:52 am 00:52 Clear 50 10 40 4.4 68 68 SSE 17 28 29.37 995 10 16 0.00 0.00
1:52 am 01:52 Mostly Clear 51 10.6 42 5.6 71 71 SSE 13 20 29.35 994 10 16 0.00 0.00
2:52 am 02:52 Mostly Clear 51 10.6 43 6.1 74 74 S 13 20 29.32 993 10 16 0.00 0.00
3:52 am 03:52 Partly Cloudy 49 9.4 43 6.1 80 80 S 9 15 29.29 992 10 16 0.00 0.00
4:52 am 04:52 Cloudy 50 10 44 6.7 80 80 S 10 17 29.27 991 10 16 0.00 0.00
5:38 am 05:38 Cloudy 47 8.3 40 4.4 77 77 WNW 22 35 29.31 992 10 16 0.00 0.00
5:48 am 05:48 Cloudy 45 7 34 1 66 66 NW 24 39 29.33 993 10 16 0.00 0.00
5:52 am 05:52 Cloudy 45 7.2 33 0.6 63 63 WNW 25 41 29.31 992 10 16 0.00 0.00
6:22 am 06:22 Cloudy 43 6.1 31 -0.6 63 63 NW 18 30 29.36 994 10 16 0.00 0.00
6:52 am 06:52 Cloudy 42 5.6 30 -1.1 62 62 NW 22 35 29.37 995 10 16 0.00 0.00
7:23 am 07:23 Cloudy 40 4.4 30 -1.1 68 68 WNW 28 44 29.42 996 10 16 0.00 0.00
7:52 am 07:52 Cloudy 39 3.9 30 -1.1 70 70 NW 25 41 29.40 996 10 16 0.00 0.00
8:52 am 08:52 Windy with Snow Likely 34 1.1 26 -3.3 73 73 NW 29 46 29.49 999 8 13 0.00 0.00
9:52 am 09:52 Windy with Snow Likely 29 -1.7 21 -6.1 72 72 WNW 30 48 29.54 1001 9 14 0.00 0.00
10:52 am 10:52 Windy with Snow Likely 25 -3.9 16 -8.9 69 69 WNW 28 44 29.63 1003 9 14 0.00 0.00
11:03 am 11:03 Windy with Snow Likely 23 -5 14 -10 68 68 NW 28 44 29.69 1006 3 5 0.00 0.00
11:11 am 11:11 Windy with Snow Likely 22 -5.6 16 -8.9 78 78 WNW 22 35 29.71 1006 3 5 0.00 0.00
11:16 am 11:16 Cloudy with Light Snow 23 -5 16 -8.9 74 74 WNW 18 30 29.70 1006 2 2 0.00 0.00
11:35 am 11:35 Windy with Snow Likely 22 -5.6 14 -10 71 71 NW 29 46 29.70 1006 4 6 0.00 0.00
11:49 am 11:49 Windy with Snow Likely 23 -5 12 -11 63 63 WNW 30 48 29.70 1006 2 3 0.00 0.00
11:52 am 11:52 Windy with Snow Likely 22 -5.6 14 -10 71 71 WNW 26 43 29.65 1004 2 3 0.00 0.00
12:11 pm 12:11 Windy with Snow Likely 22 -5.6 14 -10 71 71 WNW 26 43 29.73 1007 4 6 0.00 0.00
12:26 pm 12:26 Windy with Snow Likely 21 -6.1 14 -10 74 74 WNW 24 39 29.73 1007 2 3 0.00 0.00
12:38 pm 12:38 Windy with Snow Likely 22 -5.6 11 -11.7 63 63 NW 29 46 29.75 1007 9 14 0.00 0.00
12:47 pm 12:47 Windy with Snow Likely 21 -6 12 -11 68 68 NW 26 43 29.74 1007 2 3 0.00 0.00
12:52 pm 12:52 Windy with Snow Likely 22 -5.6 12 -11.1 66 66 NW 26 43 29.69 1005 2 3 0.00 0.00
1:05 pm 13:05 Windy with Snow Likely 22 -5.6 14 -10 71 71 WNW 24 39 29.75 1007 1 2 0.00 0.00
1:52 pm 13:52 Mostly Cloudy with Light Snow 21 -6.1 14 -10 74 74 NW 24 39 29.72 1007 1 2 0.00 0.00
2:22 pm 14:22 Mostly Cloudy with Snow 20 -6.7 15 -9.4 81 81 WNW 24 39 29.81 1010 1 1 0.00 0.00
2:52 pm 14:52 Mostly Cloudy with Snow 19 -7.2 14 -10 81 81 NW 29 46 29.76 1008 1 1 0.00 0.00
3:31 pm 15:31 Mostly Cloudy with Light Snow 18 -7.8 14 -10 84 84 NNW 22 35 29.87 1011 1 1 0.00 0.00
3:52 pm 15:52 Mostly Cloudy with Snow 19 -7.2 14 -10 81 81 NW 28 44 29.81 1010 1 1 0.01 0.25
4:43 pm 16:43 Mostly Cloudy with Snow 18 -7.8 14 -10 84 84 NW 25 41 29.92 1013 1 1 0.02 0.51
4:52 pm 16:52 Mostly Cloudy with Snow 18 -7.8 14 -10 84 84 NW 30 48 29.86 1011 1 1 0.02 0.51
5:44 pm 17:44 Windy with Snow Likely 17 -8.3 11 -11.7 77 77 NW 33 54 29.98 1015 1 2 0.00 0.00
5:52 pm 17:52 Cloudy with Blowing Snow 17 -8.3 11 -11.7 77 77 NW 32 52 29.92 1013 1 2 0.00 0.00
6:26 pm 18:26 Cloudy with Blowing Snow 18 -7.8 9 -12.8 68 68 WNW 28 44 30.01 1016 4 6 0.00 0.00
6:52 pm 18:52 Cloudy with Blowing Snow 17 -8.3 9 -12.8 70 70 NW 30 48 29.96 1015 3 5 0.00 0.00
7:52 pm 19:52 Mostly Cloudy with Blowing Snow 17 -8.3 9 -12.8 70 70 NW 39 63 29.99 1016 4 6 0.00 0.00
8:44 pm 20:44 Partly Cloudy with Blowing Snow 16 -8.9 8 -13.3 71 71 NW 28 44 30.07 1018 4 6 0.00 0.00
8:52 pm 20:52 Partly Cloudy with Blowing Snow 16 -8.9 8 -13.3 71 71 NW 31 50 30.01 1016 4 6 0.00 0.00
9:52 pm 21:52 Partly Cloudy with Blowing Snow 15 -9.4 7 -13.9 70 70 NW 28 44 30.06 1018 6 10 0.00 0.00
10:52 pm 22:52 Partly Cloudy 15 -9.4 6 -14.4 67 67 NW 24 39 30.06 1018 10 16 0.00 0.00
11:52 pm 23:52 Partly Cloudy 14 -10 5 -15 67 67 NW 20 31 30.07 1018 10 16 0.00 0.00

Powered by AerisWeather